| Date | Time | Temp. (oF) | Dew Point (oF) | Rel. Hum. (%) | Press. (in.) | Wind Dir. | Wind Speed (mph) | Hourly Rainfall (in.) |
|
|---|---|---|---|---|---|---|---|---|---|
| 1 | 12/18 | 00:00 | 54 | 54 | 100 | 29.42 | SSE | 9 | 0.00 |
| 2 | 12/17 | 23:00 | 53 | 53 | 100 | 29.47 | SSW | 8 | 0.00 |
| 3 | 12/17 | 22:00 | 51 | 50 | 100 | 29.52 | S | 9 | 0.02 |
| 4 | 12/17 | 21:00 | 50 | 50 | 100 | 29.57 | S | 12 | 0.01 |
| 5 | 12/17 | 20:00 | 48 | 48 | 100 | 29.60 | S | 6 | 0.01 |
| 6 | 12/17 | 19:00 | 46 | 45 | 99 | 29.67 | SSE | 2 | 0.03 |
| 7 | 12/17 | 18:00 | 47 | 45 | 94 | 29.71 | SSE | 0 | 0.07 |
| 8 | 12/17 | 17:00 | 48 | 44 | 89 | 29.74 | S | 3 | 0.00 |
| 9 | 12/17 | 16:00 | 48 | 43 | 84 | 29.76 | SE | 4 | 0.00 |
| 10 | 12/17 | 15:00 | 48 | 43 | 83 | 29.79 | S | 8 | 0.00 |
| 11 | 12/17 | 14:00 | 48 | 42 | 81 | 29.82 | S | 3 | 0.00 |
| 12 | 12/17 | 13:00 | 48 | 41 | 79 | 29.88 | S | 9 | 0.00 |
| 13 | 12/17 | 12:00 | 46 | 40 | 82 | 29.94 | S | 5 | 0.00 |
| 14 | 12/17 | 11:00 | 44 | 39 | 84 | 30.01 | SE | 7 | 0.00 |
| 15 | 12/17 | 10:00 | 42 | 38 | 86 | 30.07 | SSE | 2 | 0.00 |
| 16 | 12/17 | 09:00 | 40 | 35 | 83 | 30.09 | ESE | 7 | 0.00 |
| 17 | 12/17 | 08:00 | 39 | 33 | 81 | 30.12 | SE | 7 | 0.00 |
| 18 | 12/17 | 07:00 | 39 | 32 | 78 | 30.15 | ESE | 6 | 0.00 |
| 19 | 12/17 | 06:00 | 39 | 32 | 76 | 30.17 | SE | 6 | 0.00 |
| 20 | 12/17 | 05:00 | 39 | 32 | 77 | 30.19 | SSE | 1 | 0.00 |
| 21 | 12/17 | 04:00 | 38 | 31 | 77 | 30.21 | SSE | 2 | 0.00 |
| 22 | 12/17 | 03:00 | 37 | 29 | 73 | 30.25 | ESE | 1 | 0.00 |
| 23 | 12/17 | 02:00 | 36 | 29 | 77 | 30.27 | SE | 3 | 0.00 |
| 24 | 12/17 | 01:00 | 36 | 30 | 81 | 30.29 | ENE | 1 | 0.00 |